Home > Weather > Sukkur > Past weeks

Flag for Pakistan Weather for the Past 2 Weeks in Sukkur, Sindh, Pakistan

Now
50 °F

Fog.


Feels Like: 50 °F
Forecast: 53 / 75 °F
Wind: No wind

Location: Sukkur

Current Time: Feb 14, 2016 at 8:58:51 AM

Latest Report: Feb 14, 2016 at 8:00 AM


Visibility: 1 mi

Pressure: 30.07 "Hg

Humidity: 76%

Dew point: 43 °F

Location of SukkurLocation

Historic Weather in Sukkur — Graph

°F

Sukkur Temperature Yesterday

Maximum temperature yesterday: 75 °F (at 1:00 PM)
Minimum temperature yesterday: 46 °F (at 8:00 AM)
Average temperature yesterday: 62 °F

High & Low Weather Summary for the Past Weeks

 TemperatureHumidityPressure
High82 °F (Feb 7, 2:00 PM)100% (Feb 9, 7:00 AM)30.12 "Hg (Feb 9, 7:00 AM)
Low46 °F (Feb 1, 7:00 AM)25% (Feb 13, 4:00 PM)29.77 "Hg (Feb 10, 5:00 PM)
Average64 °F59%29.97 "Hg
* Reported Jan 30 7:00 AM — Feb 14 7:00 AM, Sukkur, Weather by CustomWeather, © 2016

Note: Actual official high and low records may vary slightly from our data, if they occured in-between our weather recording intervals... More about our weather records

Advertising

Sukkur Weather History for the Previous 24 Hours

 ConditionsComfort  
Time TempWeatherWind HumidityBarometerVisibility
7:00 AM
Sun, Feb 14
48 °FFog.No wind87%30.04 "Hg1 mi
6:30 AM48 °FFog.No wind82%29.98 "Hg1 mi
1:00 AM54 °FHaze.No wind72%30.01 "Hg2 mi
12:00 AM55 °FHaze.No wind67%30.04 "Hg2 mi
11:00 PM
Sat, Feb 13
55 °FHaze.No wind72%30.04 "Hg2 mi
10:30 PM57 °FHaze.No wind67%30.04 "Hg2 mi
4:00 PM73 °FHaze.5 mph25%29.95 "Hg3 mi
3:00 PM75 °FHaze.9 mph34%29.98 "Hg3 mi
2:00 PM75 °FHaze.7 mph34%29.98 "Hg3 mi
1:30 PM75 °FHaze.5 mph34%30.01 "Hg3 mi
1:00 PM75 °FHaze.5 mph34%30.01 "Hg3 mi
12:00 PM70 °FHaze.5 mph40%30.04 "Hg2 mi
11:00 AM64 °FHaze.5 mph52%30.04 "Hg2 mi
10:00 AM59 °FHaze.No wind59%30.04 "Hg2 mi
9:00 AM54 °FHaze.No wind67%30.01 "Hg2 mi
8:00 AM46 °FHaze.No wind87%30.01 "Hg1 mi
Weather by CustomWeather, © 2016

See weather overviewHow to use our weather pages